Tracking 18945 objects as of 21-Jan-2018
HD Live streaming from Space Station
objects crossing your sky now

SL-16 DEB

Track SL-16 DEB now!
10-day predictions


NORAD ID: 23090
Int'l Code: 1994-023D
Perigee: 845.7 km
Apogee: 1,132.1 km
Inclination: 71.0 °
Period: 104.7 minutes
Semi major axis: 7359 km
RCS: 0.0868 m2 (small)
Launch date: April 23, 1994
Source: Commonwealth of Independent States (former USSR) (CIS)
Launch site: TYURATAM MISSILE AND SPACE COMPLEX (TTMTR)

Note: This is SATELLITE DEBRIS
aabbcc
Your satellite tracking list
Your tracking list is empty




NASA's NSSDC Master Catalog

Two Line Element Set (TLE):
1 23090U 94023D   18020.44488181 -.00000096  00000-0 -47706-4 0  9996
2 23090  71.0328 302.1426 0194533 306.8307  51.5087 13.74980559191511
Source of the keplerian elements: AFSPC